Location: Newark
(34.0131°N, 4.3314°W)
Time: 20:30:57
(UTC+00:00)

A-11 Canister half - Pass Details

Date: 01 November 2019
Orbit: 1514 x 1686 km, 47.2° (Epoch: 13 November)

Event Time Altitude Azimuth Distance (km) Brightness Sun altitude
Rises 03:21:28 0° 299° (WNW) 4,896 - -40.8°
Reaches altitude 10° 03:24:54 10° 306° (NW) 3,887 - -40.1°
Exits shadow 03:32:44 42° 354° (N) 2,158 9.6 -38.5°
Maximum altitude 03:34:18 45° 17° (NNE) 2,079 9.7 -38.2°
Drops below altitude 10° 03:43:20 10° 89° (E) 3,752 11.8 -36.3°
Sets 03:46:35 0° 95° (E) 4,713 12.5 -35.6°
